Temperature
20 20 20 20 24 26 25 25 25 25 25 24 23 24 24 23 23 21 18 18 18 18 18 18 19 19 19 19 18 18 19 19 19 19 19 19 19 19 19 19 19 19 19 19 19 19 19 19 19
20 20 20 23 27 26 25 25 24 24 24 23 23 23 23 22 20 19 18 18 18 18 18 18 19 19 19 18 18 18 18 18 19 19 19 19 19 19 19 19 19 19 19 19 18 18 18 18 19
21 20 22 26 26 25 24 24 24 24 23 23 23 23 22 20 19 19 18 18 18 18 18 18 18 18 18 18 18 18 18 18 18 18 18 18 18 18 18 18 18 19 18 18 18 18 18 18 18
20 21 24 27 25 24 24 24 24 24 23 23 23 22 20 18 18 18 18 18 18 18 18 18 18 18 18 18 18 18 18 18 18 18 18 18 18 18 18 18 18 18 18 18 18 18 18 18 18
21 24 27 26 25 25 24 24 24 25 24 23 23 22 20 18 18 18 18 18 18 18 18 18 18 18 18 18 18 18 18 18 18 18 18 18 18 18 18 18 18 18 18 18 18 18 18 18 18
23 26 27 26 25 25 24 23 24 24 23 22 22 22 19 18 18 18 18 18 18 18 17 18 18 18 18 18 18 18 18 18 18 18 18 18 18 18 18 18 18 18 18 18 18 18 18 18 18
25 27 26 26 25 25 24 23 24 24 23 22 22 22 20 18 17 18 18 18 18 17 17 17 17 17 17 17 17 17 17 17 17 18 18 18 18 18 18 18 18 18 18 18 18 18 18 18 18
24 27 26 26 25 24 24 23 22 23 22 21 21 22 20 18 17 17 17 17 17 17 17 17 17 17 17 17 17 17 17 17 17 17 18 18 18 18 18 18 18 18 18 18 18 18 18 18 18
23 27 26 26 25 25 23 23 22 21 21 20 20 20 19 18 18 18 18 17 17 17 17 16 16 16 16 16 16 16 17 17 17 17 17 17 17 17 17 17 17 18 18 18 18 18 18 18 18
25 26 25 25 25 25 23 23 22 22 22 21 20 19 18 18 18 18 18 17 17 17 16 16 16 16 16 16 16 16 16 16 16 16 16 17 17 17 17 17 17 17 18 18 18 18 18 18 17
25 25 24 23 23 23 23 22 22 23 23 22 20 19 18 18 18 18 18 17 16 16 16 16 16 15 15 15 15 15 15 15 16 16 16 16 16 17 17 17 17 17 17 17 17 17 17 17 17
25 24 23 23 22 22 23 22 22 22 22 20 20 19 19 19 18 18 17 17 16 16 15 15 15 15 15 15 15 15 15 15 15 15 15 16 16 16 16 16 17 17 17 17 17 17 17 17 17
25 24 22 22 21 22 22 22 22 21 20 19 19 19 19 19 18 18 17 17 16 16 15 15 15 15 15 14 14 14 14 14 14 15 15 15 15 16 16 16 16 17 17 17 17 17 17 17 17
24 23 22 22 22 22 22 22 21 21 19 19 19 19 19 18 18 18 17 17 16 16 15 15 15 14 14 14 14 14 14 14 14 14 14 15 15 15 15 16 16 16 16 16 17 17 17 17 17
23 24 23 23 23 22 22 23 23 21 20 20 19 19 18 18 18 17 17 16 16 15 15 15 14 14 14 14 13 14 14 14 14 14 14 14 14 15 15 15 15 16 16 16 16 17 17 17 17
25 25 25 24 23 22 22 24 23 21 20 20 20 19 18 18 18 17 17 16 16 15 15 14 14 14 14 13 13 13 13 13 13 13 14 14 14 14 15 15 15 15 16 16 16 16 17 17 17
25 26 26 25 24 23 23 24 23 21 21 20 20 19 19 18 18 17 16 16 15 15 15 14 14 14 13 13 13 13 13 13 13 13 13 13 14 14 14 14 15 15 15 15 16 16 16 16 17
26 26 26 26 24 23 23 24 24 21 21 21 20 20 19 19 18 17 16 16 15 15 15 14 14 13 13 13 13 13 13 13 13 13 13 13 13 13 14 14 14 14 15 15 15 16 16 16 16
26 26 26 26 24 23 24 24 24 22 21 21 21 20 20 19 18 17 16 16 15 15 14 14 14 13 13 13 13 12 12 12 12 12 12 13 13 13 13 13 14 14 14 15 15 15 15 16 16
26 26 26 25 23 23 24 24 24 23 22 21 21 21 20 19 18 17 16 16 15 15 14 14 13 13 13 12 12 12 12 12 12 12 12 12 12 13 13 13 13 14 14 14 15 15 15 16 16
26 26 26 25 23 23 23 24 24 23 21 20 20 20 19 18 18 17 16 16 15 15 14 14 13 13 13 12 12 12 12 12 12 12 12 12 12 12 13 13 13 13 13 14 14 15 15 15 15
26 25 24 24 24 25 23 24 25 23 22 21 21 20 19 18 18 17 16 16 15 14 14 13 13 13 12 12 12 12 12 12 12 12 12 12 12 12 13 13 13 13 13 13 14 14 14 15 15
25 23 24 24 24 24 24 24 25 23 23 23 22 20 19 18 17 17 16 15 15 14 14 13 13 13 12 12 12 12 12 12 12 12 12 12 12 12 12 12 13 13 13 13 13 14 14 14 14
23 24 23 23 24 24 24 24 24 24 24 23 22 20 19 18 17 17 16 15 15 14 14 13 13 13 12 12 12 12 12 11 11 11 12 12 12 12 12 12 12 12 13 13 13 13 14 14 14
24 25 25 25 25 25 23 23 24 24 23 22 21 20 19 18 17 17 16 15 15 14 14 13 13 13 12 12 12 12 11 11 11 11 11 11 12 12 12 12 12 12 12 13 13 13 14 14 14
25 25 24 24 24 25 23 23 25 23 21 20 20 19 18 18 17 16 16 15 15 14 14 13 13 13 12 12 12 12 11 11 11 11 11 11 11 11 12 12 12 12 12 12 13 13 13 14 14
24 25 24 24 24 23 25 24 24 22 22 21 20 19 19 18 17 17 16 15 15 14 14 13 13 13 12 12 12 12 11 11 11 11 11 11 11 11 11 11 12 12 12 12 13 13 13 13 14
24 24 24 24 23 24 24 24 24 24 23 22 21 21 20 18 18 17 16 15 15 14 14 13 13 13 12 12 12 12 11 11 11 11 11 11 11 11 11 11 11 12 12 12 12 13 13 13 13
23 23 23 24 23 23 24 25 24 24 23 23 22 21 19 18 18 17 16 15 15 14 14 14 13 13 12 12 12 12 11 11 11 11 11 11 11 11 11 11 11 11 12 12 12 12 12 13 13
24 24 24 24 23 22 23 24 24 23 22 21 21 20 19 18 18 17 16 15 15 15 14 14 13 13 12 12 12 11 11 11 11 11 11 11 11 11 11 11 11 11 11 12 12 12 12 13 13
Wind_Speed
7 6 3 3 3 4 8 6 5 5 5 7 7 5 6 8 6 4 4 5 3 3 3 4 3 2 2 2 3 4 5 5 5 6 6 6 6 5 4 4 3 3 2 2 1 0 1 2 2
6 4 3 3 0 6 7 6 8 7 5 3 5 6 6 8 7 5 5 5 3 3 3 3 3 1 1 2 3 4 5 5 6 6 6 6 6 6 6 5 4 4 3 3 1 1 0 1 1
5 3 2 0 4 6 5 6 6 5 6 4 4 5 5 5 6 5 6 4 3 4 3 5 4 3 3 3 4 4 5 6 6 7 7 7 7 7 6 6 5 5 4 3 2 2 1 1 1
3 3 2 3 8 7 5 5 3 2 5 6 4 6 6 6 6 5 5 4 4 5 5 7 7 6 6 5 5 5 6 6 7 8 8 8 8 7 7 7 6 6 5 4 3 3 2 2 1
3 2 2 5 6 6 5 6 5 4 4 6 5 6 6 7 7 7 6 6 5 5 6 7 9 8 7 7 7 7 7 7 7 8 9 9 9 9 9 8 8 7 7 6 5 4 4 3 2
2 2 1 4 5 5 5 4 4 6 6 5 4 5 5 6 8 7 7 7 7 6 6 7 8 8 8 8 8 8 8 7 8 9 9 9 9 10 10 10 10 9 9 8 7 6 5 4 3
2 1 2 4 4 3 4 3 5 4 6 6 4 4 5 7 7 6 7 7 8 8 7 7 7 7 8 8 9 9 8 8 8 8 9 10 11 11 12 11 11 11 11 10 9 7 6 5 5
2 0 2 2 2 3 3 3 4 5 5 5 4 3 5 6 5 6 7 8 8 8 8 7 7 7 7 7 7 9 9 8 8 8 8 9 11 12 12 13 13 13 12 11 10 9 8 7 6
2 1 1 1 1 3 4 3 4 3 6 6 6 7 6 5 5 5 6 7 7 8 7 7 7 8 8 7 7 7 7 7 8 8 7 9 9 11 11 13 11 12 13 13 12 11 10 9 9
1 1 3 2 1 3 4 3 4 4 5 6 7 7 6 4 4 5 7 8 8 9 9 8 8 9 9 8 7 7 7 7 7 8 8 7 8 9 10 8 10 12 13 14 13 12 11 12 10
1 2 3 3 3 4 4 4 2 3 3 4 5 6 5 4 4 5 7 7 7 8 9 9 9 9 9 7 7 7 7 7 7 8 8 7 8 8 8 8 9 11 12 12 11 12 12 11 9
3 4 3 4 4 3 4 4 3 1 3 5 5 5 3 2 4 5 6 6 7 8 8 8 9 9 9 9 8 8 7 7 7 8 9 7 6 6 7 7 8 8 8 8 8 8 10 11 11
3 4 4 5 5 4 4 4 3 4 5 5 6 4 3 2 3 4 5 6 7 8 9 9 9 10 10 9 8 8 7 8 9 8 8 8 6 7 6 6 7 8 8 8 8 8 9 10 10
4 6 6 5 5 4 4 4 4 5 6 6 5 4 2 1 2 4 5 7 8 9 10 10 10 10 10 9 9 9 9 8 9 8 9 10 8 7 6 7 7 7 8 8 8 9 9 9 8
7 6 5 5 4 3 4 5 5 6 8 7 6 4 2 1 2 4 6 7 9 10 10 10 11 11 11 11 10 9 9 9 8 8 10 10 9 8 7 7 7 7 8 9 8 9 8 8 9
5 4 4 5 5 4 6 6 4 7 9 8 6 4 4 2 3 4 5 7 8 9 10 10 9 11 12 11 10 9 9 9 8 9 9 10 10 10 8 7 8 8 7 6 7 8 8 9 9
5 5 5 3 7 5 7 7 3 7 9 8 7 6 5 4 3 3 5 7 8 9 10 10 11 11 11 11 10 9 9 8 8 8 8 9 10 10 9 7 8 8 7 7 7 8 8 8 9
5 6 6 5 4 8 9 9 5 7 9 9 8 7 6 5 4 4 5 6 8 9 10 10 11 11 11 9 9 8 8 8 8 8 8 9 9 10 9 8 9 8 7 7 8 9 8 7 8
5 7 8 4 1 6 10 11 8 7 9 10 9 8 7 5 4 4 5 6 8 9 10 10 11 11 10 9 9 9 9 9 8 8 9 9 9 9 8 8 8 7 7 8 9 8 9 8 7
6 8 7 2 1 5 9 12 9 7 9 9 9 8 7 5 5 4 5 6 8 9 10 10 10 11 10 9 9 8 9 9 8 8 8 9 9 8 7 8 7 7 7 8 8 8 7 7 7
6 7 7 5 2 5 8 8 5 4 6 8 8 8 7 6 6 5 5 6 7 8 9 9 10 10 10 10 8 9 8 8 7 9 8 8 8 8 7 8 8 8 8 7 8 9 9 8 8
6 2 4 4 6 5 3 7 2 2 5 7 8 7 7 5 5 5 5 6 7 8 8 9 10 10 10 10 9 10 9 9 9 9 8 9 8 7 6 7 7 7 7 8 8 9 9 9 8
0 2 2 5 7 9 5 6 2 2 3 3 4 5 5 4 4 4 5 6 7 7 8 8 9 10 10 10 9 9 9 9 8 8 9 9 8 7 6 6 6 6 6 8 8 8 9 9 9
5 4 3 4 6 6 2 5 3 0 2 1 1 2 3 3 3 4 4 5 6 6 7 8 9 10 10 10 10 9 10 10 10 10 9 8 7 6 6 5 5 6 6 7 7 8 10 9 10
5 6 5 4 4 2 1 5 4 2 2 3 2 2 2 3 3 4 4 5 6 6 7 8 9 9 10 10 10 10 10 10 10 10 9 9 8 7 7 6 5 5 5 6 7 7 8 10 10
3 5 5 5 5 4 3 4 2 1 2 3 4 3 3 4 3 4 4 5 5 6 7 8 9 9 10 10 10 10 10 8 8 9 9 9 7 7 8 7 6 5 5 5 6 6 7 8 9
3 3 3 5 5 5 3 3 3 2 4 5 5 5 5 4 4 4 4 4 5 6 7 8 8 9 10 10 10 10 10 9 9 9 9 8 8 7 8 7 6 5 5 5 5 6 7 7 8
2 3 3 4 4 4 4 3 1 0 1 3 5 5 5 4 4 4 4 4 4 5 6 6 7 8 8 9 9 8 9 9 9 9 9 9 9 8 8 7 6 5 5 4 4 5 6 7 7
5 4 3 3 4 4 4 1 2 2 3 4 4 4 4 4 5 4 3 3 4 4 5 5 6 7 8 9 9 9 9 9 9 9 9 9 9 8 8 7 6 5 5 4 4 4 5 6 7
5 5 6 5 3 4 5 3 3 2 4 5 6 5 5 5 5 4 4 4 4 4 5 5 6 6 7 8 8 8 9 9 9 9 9 9 9 8 8 7 6 5 5 4 4 4 5 5 6
Wind_Direction
174 181 206 238 225 94 71 54 44 46 53 52 46 50 59 44 23 47 37 26 33 95 112 131 137 166 191 203 207 211 215 220 227 228 224 219 214 211 214 220 227 228 232 226 206 145 76 65 56
165 182 223 250 93 92 74 51 53 47 50 55 58 53 62 58 39 45 31 22 37 83 87 76 74 42 270 255 253 241 236 236 237 239 237 232 227 226 226 227 235 233 232 225 216 238 328 46 33
173 230 268 311 62 62 70 49 51 58 45 32 63 52 47 36 23 27 22 23 54 69 63 61 37 11 349 327 297 277 266 261 258 255 251 245 239 237 237 236 237 237 237 232 229 236 242 276 337
209 230 228 89 83 63 50 35 15 61 63 43 66 76 74 38 12 22 33 41 56 58 50 48 31 16 5 353 330 307 289 277 271 266 260 256 252 246 241 242 243 244 242 241 237 238 245 251 269
241 252 143 99 88 83 61 36 33 53 65 53 62 86 76 41 34 42 44 45 47 45 38 33 30 18 10 2 346 331 308 289 281 276 269 264 259 253 248 247 246 246 244 243 240 238 246 249 251
251 252 121 98 101 101 79 48 53 62 74 65 64 88 75 50 43 45 49 50 49 45 37 32 33 21 12 4 352 340 331 314 298 286 279 273 267 260 254 250 249 247 247 244 241 238 240 249 248
297 343 68 96 114 112 85 62 48 54 64 47 28 86 98 59 50 56 59 57 52 43 35 26 17 13 12 9 2 354 348 336 320 304 289 276 266 261 257 253 250 246 244 243 241 236 233 239 243
306 238 119 116 121 104 101 92 63 40 64 51 26 64 80 67 69 70 62 52 45 37 27 17 9 2 352 348 0 351 344 335 320 306 297 283 266 257 253 251 243 245 245 241 238 234 231 233 236
271 260 74 86 93 111 132 124 91 75 86 78 67 66 78 92 88 70 58 47 38 27 18 10 358 353 344 337 348 335 330 332 313 296 294 284 270 262 251 247 245 244 247 244 237 232 230 230 222
283 15 57 49 57 115 133 118 120 129 105 98 96 94 102 104 78 52 40 32 24 17 12 8 0 355 349 343 338 330 326 322 311 306 300 290 277 267 263 254 248 249 247 244 236 231 227 232 226
40 64 100 105 99 122 135 128 139 160 102 96 114 117 114 99 63 42 35 28 18 10 8 1 354 351 345 338 333 326 319 314 303 303 300 292 280 268 260 256 246 242 242 240 228 222 223 224 230
111 90 109 127 129 144 143 143 141 147 89 109 120 127 124 89 50 33 25 15 7 5 359 353 348 342 340 338 332 321 320 317 309 304 303 297 285 272 264 259 257 252 243 238 234 229 223 225 228
133 128 120 127 138 141 144 149 145 144 133 139 142 151 138 78 37 28 14 4 357 355 352 349 341 342 340 337 327 323 322 317 311 306 300 298 288 277 265 261 253 253 248 239 236 232 228 225 229
121 130 136 145 152 163 169 165 180 170 167 168 175 178 167 100 7 358 359 354 351 350 347 346 342 340 336 333 331 326 321 314 309 306 301 299 290 281 273 266 261 255 248 246 239 236 230 225 225
139 144 158 177 182 174 201 214 209 177 182 190 196 190 193 232 323 341 352 344 347 345 343 346 340 337 335 332 331 323 316 314 311 307 303 300 293 285 277 269 262 257 250 246 240 238 234 228 220
173 203 226 188 197 189 233 270 177 179 195 207 212 207 219 247 297 333 340 337 341 338 338 340 336 335 335 332 326 321 318 316 310 307 304 299 294 286 279 271 264 258 255 248 240 235 229 228 223
212 257 279 212 202 208 235 275 179 192 209 220 222 226 235 253 285 317 330 334 336 332 331 333 336 334 335 329 320 319 317 313 311 310 308 305 298 290 278 271 266 260 252 245 242 234 229 227 223
267 278 288 285 199 225 246 265 240 210 224 235 234 236 244 263 292 316 323 328 328 329 330 332 333 335 334 328 326 325 320 319 318 315 313 310 300 293 284 272 265 258 252 245 241 238 232 230 223
287 283 288 305 213 245 262 272 267 234 230 238 239 243 253 271 289 309 318 322 327 333 334 336 334 338 335 333 330 329 326 323 321 320 319 313 303 295 284 277 272 261 253 249 246 239 235 229 215
258 276 288 274 222 262 284 282 273 247 238 243 249 250 257 273 287 306 317 326 335 336 337 336 338 339 338 335 325 320 317 314 317 317 318 317 310 300 288 277 271 259 253 249 246 238 235 229 209
251 277 295 294 259 238 289 280 238 218 232 237 244 251 262 267 286 309 321 328 333 337 341 337 337 337 340 335 329 325 323 317 324 329 327 323 315 303 290 281 273 264 251 244 241 236 231 227 215
259 279 269 264 274 291 295 303 270 213 236 237 240 241 251 256 272 298 315 325 332 338 339 335 338 338 340 337 337 332 329 327 324 322 320 320 318 312 303 288 274 266 255 246 242 235 232 228 220
237 110 227 260 275 282 254 277 282 177 257 247 238 239 246 249 270 296 313 322 328 337 339 337 337 338 341 339 338 329 329 326 323 324 322 322 322 318 312 299 279 270 262 251 244 241 233 226 222
148 174 193 230 258 267 271 273 293 180 334 349 221 223 235 243 265 293 310 318 325 333 336 336 337 340 341 339 338 339 334 328 328 330 329 326 322 319 319 309 292 277 267 257 246 241 234 231 226
212 265 273 251 242 278 116 267 279 15 310 283 281 253 241 243 265 289 306 317 324 329 334 334 336 337 342 341 342 342 338 330 330 331 331 330 327 326 325 317 302 288 274 264 252 243 238 232 228
218 270 295 304 307 313 228 259 313 54 271 255 250 252 248 247 259 276 296 311 319 325 330 333 335 336 340 340 341 341 340 335 334 333 331 329 327 327 325 318 308 298 281 266 253 245 237 234 232
193 227 321 287 289 283 261 266 277 190 231 232 236 241 245 250 253 268 284 300 313 321 328 332 332 335 339 341 341 342 342 340 336 334 335 334 334 330 328 322 315 308 291 272 258 245 239 234 233
331 161 209 262 294 294 291 269 300 193 270 243 248 252 251 249 254 262 273 290 307 319 323 329 331 334 339 341 343 343 341 343 340 337 340 339 336 333 327 326 325 318 306 281 262 252 241 234 231
172 194 226 252 279 291 310 22 81 310 308 290 280 267 255 249 252 258 266 282 296 308 319 328 335 339 344 345 344 344 346 346 345 344 344 342 339 339 336 336 330 327 320 306 280 260 246 238 232
239 232 222 257 253 256 284 294 122 256 281 281 280 270 252 245 245 250 258 268 282 304 319 328 336 341 345 343 343 346 347 350 350 350 349 347 347 345 344 342 340 336 326 315 299 280 260 246 241
Height
1545 1545 1545 1547 1544 1540 1546 1547 1544 1544 1545 1548 1547 1546 1546 1548 1550 1557 1557 1554 1555 1556 1556 1555 1555 1556 1556 1556 1556 1557 1557 1557 1557 1556 1556 1556 1556 1555 1555 1555 1555 1555 1554 1554 1554 1554 1553 1553 1553
1546 1545 1547 1547 1540 1547 1551 1548 1548 1549 1549 1550 1549 1549 1549 1552 1555 1557 1556 1555 1556 1557 1557 1556 1555 1556 1556 1556 1556 1556 1556 1556 1556 1556 1555 1555 1555 1555 1554 1554 1554 1554 1554 1554 1554 1553 1553 1553 1553
1546 1546 1549 1543 1543 1548 1552 1550 1550 1551 1551 1550 1551 1552 1553 1557 1558 1558 1557 1557 1557 1557 1557 1556 1556 1556 1555 1555 1555 1555 1555 1555 1555 1554 1554 1554 1554 1554 1554 1553 1553 1553 1553 1553 1553 1553 1553 1553 1553
1548 1549 1548 1543 1550 1551 1551 1551 1551 1550 1552 1553 1552 1554 1558 1561 1560 1560 1558 1558 1558 1558 1557 1556 1556 1555 1555 1555 1554 1554 1554 1553 1553 1553 1553 1553 1553 1553 1552 1552 1552 1552 1552 1552 1552 1552 1552 1552 1552
1549 1548 1544 1547 1550 1551 1552 1553 1552 1551 1552 1554 1554 1556 1560 1562 1561 1560 1559 1559 1559 1558 1557 1556 1555 1555 1554 1554 1553 1553 1552 1552 1552 1552 1552 1551 1551 1551 1551 1551 1551 1551 1551 1551 1551 1551 1551 1551 1552
1550 1546 1546 1551 1552 1551 1553 1555 1553 1553 1554 1556 1556 1557 1562 1563 1562 1561 1560 1560 1559 1558 1557 1556 1555 1554 1553 1552 1552 1551 1551 1550 1550 1550 1549 1550 1549 1549 1549 1549 1549 1549 1549 1549 1550 1550 1550 1550 1551
1550 1545 1547 1549 1552 1552 1554 1556 1555 1555 1555 1558 1558 1558 1562 1564 1562 1562 1561 1560 1559 1558 1557 1556 1555 1553 1552 1551 1550 1550 1549 1548 1548 1547 1547 1547 1547 1547 1547 1547 1547 1547 1547 1548 1548 1548 1549 1549 1549
1550 1546 1548 1549 1552 1553 1556 1557 1558 1557 1559 1561 1560 1559 1563 1565 1563 1563 1562 1561 1560 1558 1557 1555 1554 1552 1551 1549 1548 1547 1546 1545 1545 1544 1544 1544 1544 1544 1544 1544 1545 1545 1545 1546 1546 1546 1547 1547 1548
1550 1548 1550 1550 1551 1553 1556 1557 1559 1560 1560 1561 1562 1563 1565 1565 1564 1564 1563 1562 1560 1559 1557 1555 1553 1551 1550 1548 1546 1545 1543 1542 1542 1542 1541 1541 1541 1541 1541 1542 1542 1542 1543 1543 1544 1544 1545 1546 1546
1550 1549 1551 1552 1552 1553 1557 1557 1559 1560 1560 1562 1564 1564 1565 1565 1565 1564 1563 1562 1560 1559 1557 1555 1553 1551 1549 1547 1545 1543 1542 1540 1539 1539 1538 1537 1537 1538 1538 1538 1538 1539 1539 1540 1541 1542 1543 1544 1546
1550 1550 1553 1555 1556 1556 1557 1559 1560 1559 1560 1562 1564 1565 1565 1565 1565 1564 1563 1562 1560 1559 1556 1554 1552 1550 1547 1545 1543 1541 1539 1538 1537 1536 1535 1534 1534 1534 1534 1535 1535 1535 1536 1537 1538 1539 1540 1542 1544
1551 1554 1555 1556 1557 1558 1558 1559 1560 1561 1562 1563 1564 1565 1565 1565 1565 1564 1563 1562 1560 1558 1556 1553 1551 1549 1546 1544 1541 1539 1537 1535 1534 1532 1532 1531 1530 1530 1530 1530 1531 1532 1533 1534 1535 1536 1538 1539 1541
1551 1555 1557 1557 1558 1559 1559 1560 1560 1562 1563 1564 1564 1565 1565 1565 1564 1564 1563 1561 1560 1557 1555 1552 1550 1547 1545 1542 1539 1537 1535 1532 1531 1528 1527 1527 1526 1526 1526 1526 1527 1528 1529 1530 1531 1533 1535 1536 1538
1553 1555 1557 1558 1559 1559 1559 1560 1561 1561 1563 1563 1564 1564 1564 1564 1564 1563 1562 1561 1559 1556 1554 1551 1549 1546 1543 1540 1538 1535 1532 1529 1527 1526 1524 1524 1523 1522 1522 1522 1523 1523 1524 1526 1527 1529 1531 1532 1534
1554 1555 1557 1557 1558 1559 1559 1558 1558 1559 1561 1562 1563 1563 1564 1564 1563 1562 1561 1560 1558 1555 1553 1550 1547 1544 1541 1538 1535 1532 1529 1527 1525 1523 1521 1520 1519 1518 1518 1518 1519 1520 1520 1521 1523 1525 1526 1528 1530
1552 1552 1554 1554 1556 1558 1560 1554 1554 1558 1559 1560 1561 1562 1562 1562 1562 1561 1560 1558 1556 1554 1552 1549 1545 1542 1539 1536 1533 1530 1527 1524 1522 1520 1518 1516 1515 1515 1514 1514 1514 1515 1516 1517 1518 1520 1522 1524 1526
1550 1550 1550 1551 1554 1555 1556 1551 1553 1557 1558 1558 1559 1560 1561 1561 1561 1560 1559 1557 1555 1553 1550 1547 1544 1541 1537 1534 1530 1527 1525 1522 1519 1517 1514 1513 1511 1511 1510 1510 1510 1511 1512 1512 1514 1516 1518 1520 1522
1548 1546 1547 1547 1549 1553 1552 1549 1550 1554 1555 1555 1556 1558 1558 1558 1559 1558 1557 1555 1553 1551 1549 1546 1543 1539 1536 1532 1529 1525 1522 1520 1517 1514 1511 1509 1507 1506 1506 1506 1506 1506 1507 1508 1510 1511 1513 1515 1518
1543 1545 1546 1546 1550 1551 1548 1546 1546 1550 1553 1553 1554 1554 1555 1556 1557 1557 1556 1554 1552 1550 1547 1544 1541 1538 1534 1530 1527 1523 1520 1517 1514 1511 1508 1505 1503 1502 1502 1501 1502 1502 1503 1504 1505 1507 1509 1511 1514
1544 1545 1545 1547 1551 1550 1545 1543 1542 1546 1549 1550 1551 1552 1553 1555 1555 1555 1554 1553 1551 1548 1546 1543 1540 1536 1533 1529 1525 1522 1518 1514 1511 1508 1505 1502 1500 1498 1498 1497 1497 1498 1498 1499 1501 1502 1504 1506 1509
1544 1545 1545 1547 1550 1550 1549 1541 1538 1543 1547 1549 1550 1551 1552 1553 1553 1553 1552 1551 1549 1547 1544 1541 1538 1535 1531 1527 1523 1520 1516 1513 1510 1506 1502 1499 1497 1495 1494 1493 1493 1493 1494 1495 1496 1498 1500 1502 1505
1544 1545 1547 1549 1549 1544 1550 1547 1535 1539 1543 1545 1547 1548 1550 1551 1551 1551 1551 1549 1548 1546 1543 1540 1537 1534 1530 1526 1522 1518 1515 1511 1507 1504 1500 1497 1494 1492 1491 1490 1489 1490 1490 1491 1492 1494 1496 1498 1500
1545 1548 1547 1548 1547 1546 1545 1548 1535 1539 1539 1540 1543 1546 1548 1549 1550 1550 1549 1548 1546 1544 1541 1539 1536 1532 1529 1525 1521 1517 1513 1510 1506 1502 1498 1495 1492 1490 1488 1487 1486 1486 1486 1487 1488 1490 1492 1494 1496
1548 1547 1548 1547 1545 1549 1545 1547 1540 1534 1537 1539 1542 1544 1546 1547 1548 1548 1547 1546 1545 1543 1540 1537 1534 1531 1527 1524 1520 1516 1512 1508 1504 1500 1497 1493 1490 1488 1486 1484 1483 1483 1483 1483 1484 1486 1487 1490 1492
1545 1545 1548 1547 1547 1545 1546 1548 1540 1535 1538 1540 1542 1543 1545 1546 1546 1546 1546 1545 1543 1541 1539 1536 1533 1530 1526 1522 1519 1515 1511 1507 1503 1499 1495 1492 1489 1486 1483 1481 1480 1480 1480 1480 1481 1482 1484 1486 1488
1543 1543 1552 1557 1551 1543 1545 1545 1534 1537 1539 1541 1542 1543 1544 1544 1545 1545 1544 1543 1542 1540 1537 1535 1532 1529 1525 1521 1518 1514 1510 1506 1502 1498 1495 1491 1487 1484 1481 1479 1478 1477 1477 1477 1478 1479 1480 1482 1484
1544 1543 1544 1547 1547 1550 1539 1537 1533 1536 1537 1539 1540 1541 1542 1542 1543 1543 1542 1542 1540 1538 1536 1533 1530 1527 1524 1520 1517 1513 1509 1505 1502 1498 1494 1490 1487 1483 1481 1478 1477 1476 1475 1475 1475 1476 1477 1479 1480
1543 1543 1546 1548 1554 1549 1541 1538 1536 1533 1533 1535 1537 1538 1539 1540 1541 1541 1540 1540 1539 1537 1535 1532 1529 1526 1523 1520 1516 1512 1508 1505 1501 1497 1493 1490 1486 1483 1480 1478 1476 1474 1473 1473 1473 1473 1474 1475 1477
1546 1547 1545 1546 1548 1552 1549 1539 1530 1531 1532 1533 1534 1536 1537 1538 1538 1539 1538 1538 1537 1535 1533 1531 1528 1525 1522 1519 1515 1512 1508 1504 1501 1497 1493 1490 1486 1483 1480 1477 1475 1474 1472 1471 1471 1471 1472 1473 1474
1540 1539 1542 1547 1547 1549 1549 1540 1530 1532 1533 1534 1534 1534 1535 1536 1536 1536 1536 1536 1535 1534 1532 1530 1527 1525 1521 1518 1515 1511 1508 1504 1501 1497 1493 1490 1486 1483 1480 1477 1475 1473 1471 1470 1469 1469 1469 1470 1471